TimeCST,TemperatureF,Dew PointF,Humidity,Sea Level PressureIn,VisibilityMPH,Wind Direction,Wind SpeedMPH,Gust SpeedMPH,PrecipitationIn,Events,Conditions,WindDirDegrees,DateUTC
12:15 AM,23.0,21.2,93,29.89,10.0,South,12.7,-,N/A,,Clear,170,2013-01-10 06:15:00
12:35 AM,23.0,21.2,93,29.88,-9999.0,South,12.7,-,N/A,,Unknown,180,2013-01-10 06:35:00
12:55 AM,23.0,21.2,93,29.87,-9999.0,South,12.7,-,N/A,,Unknown,170,2013-01-10 06:55:00
2:15 AM,23.0,23.0,100,29.84,10.0,South,9.2,-,N/A,,Clear,170,2013-01-10 08:15:00
2:35 AM,23.0,23.0,100,29.84,10.0,SSE,13.8,-,N/A,,Clear,160,2013-01-10 08:35:00
2:55 AM,24.8,23.0,93,29.83,10.0,SSE,12.7,-,N/A,,Clear,150,2013-01-10 08:55:00
3:15 AM,24.8,24.8,100,29.82,10.0,SSE,6.9,-,N/A,,Partly Cloudy,150,2013-01-10 09:15:00
3:35 AM,24.8,24.8,100,29.80,10.0,SSE,10.4,17.3,N/A,,Partly Cloudy,160,2013-01-10 09:35:00
3:55 AM,24.8,24.8,100,29.78,10.0,SSE,11.5,-,N/A,,Mostly Cloudy,160,2013-01-10 09:55:00
4:15 AM,24.8,24.8,100,29.79,10.0,SSE,9.2,-,N/A,,Mostly Cloudy,160,2013-01-10 10:15:00
4:35 AM,24.8,24.8,100,29.77,10.0,SSE,17.3,-,N/A,,Scattered Clouds,150,2013-01-10 10:35:00
4:55 AM,24.8,24.8,100,29.76,10.0,SSE,13.8,-,N/A,,Overcast,150,2013-01-10 10:55:00
5:15 AM,24.8,24.8,100,29.75,10.0,SSE,13.8,-,N/A,,Scattered Clouds,150,2013-01-10 11:15:00
5:35 AM,24.8,24.8,100,29.73,10.0,SSE,13.8,-,N/A,,Clear,160,2013-01-10 11:35:00
5:55 AM,23.0,23.0,100,29.72,10.0,SSE,9.2,-,N/A,,Clear,150,2013-01-10 11:55:00
6:35 AM,23.0,23.0,100,29.71,10.0,SSE,12.7,18.4,N/A,,Clear,160,2013-01-10 12:35:00
6:55 AM,23.0,23.0,100,29.70,10.0,SSE,13.8,-,N/A,,Clear,160,2013-01-10 12:55:00
7:15 AM,23.0,23.0,100,29.69,10.0,SSE,9.2,-,N/A,,Clear,150,2013-01-10 13:15:00
7:55 AM,23.0,23.0,100,29.66,10.0,SE,6.9,-,N/A,,Scattered Clouds,130,2013-01-10 13:55:00
8:35 AM,23.0,23.0,100,29.66,10.0,SE,9.2,-,N/A,,Clear,140,2013-01-10 14:35:00
8:55 AM,23.0,23.0,100,29.67,10.0,ESE,6.9,-,N/A,,Clear,120,2013-01-10 14:55:00
9:15 AM,23.0,23.0,100,29.67,10.0,ESE,9.2,-,N/A,,Clear,120,2013-01-10 15:15:00
9:35 AM,23.0,23.0,100,29.66,10.0,SSE,11.5,-,N/A,,Clear,150,2013-01-10 15:35:00
9:55 AM,24.8,24.8,100,29.65,10.0,SE,13.8,-,N/A,,Clear,140,2013-01-10 15:55:00
10:15 AM,26.6,26.6,100,29.66,10.0,SE,10.4,-,N/A,,Clear,130,2013-01-10 16:15:00
10:35 AM,28.4,26.6,93,29.66,10.0,East,8.1,-,N/A,,Clear,100,2013-01-10 16:35:00
10:55 AM,30.2,26.6,86,29.67,10.0,SE,8.1,-,N/A,,Clear,130,2013-01-10 16:55:00
11:15 AM,32.0,28.4,87,29.67,10.0,SSE,5.8,-,N/A,,Clear,150,2013-01-10 17:15:00
11:35 AM,33.8,30.2,87,29.66,10.0,South,9.2,-,N/A,,Clear,170,2013-01-10 17:35:00
11:55 AM,37.4,30.2,75,29.66,10.0,SSW,12.7,19.6,N/A,,Clear,200,2013-01-10 17:55:00
12:15 PM,37.4,30.2,75,29.65,10.0,South,12.7,20.7,N/A,,Clear,190,2013-01-10 18:15:00
12:35 PM,37.4,30.2,75,29.63,10.0,South,16.1,19.6,N/A,,Clear,180,2013-01-10 18:35:00
12:55 PM,37.4,30.2,75,29.63,10.0,South,10.4,-,N/A,,Clear,190,2013-01-10 18:55:00
1:15 PM,37.4,30.2,75,29.62,10.0,South,9.2,-,N/A,,Clear,190,2013-01-10 19:15:00
1:35 PM,37.4,32.0,81,29.62,10.0,South,8.1,-,N/A,,Clear,180,2013-01-10 19:35:00
1:55 PM,39.2,30.2,70,29.61,10.0,South,9.2,-,N/A,,Clear,180,2013-01-10 19:55:00
2:15 PM,39.2,32.0,75,29.61,10.0,South,8.1,-,N/A,,Clear,180,2013-01-10 20:15:00
2:35 PM,39.2,32.0,75,29.64,10.0,South,9.2,-,N/A,,Clear,180,2013-01-10 20:35:00
2:55 PM,39.2,32.0,75,29.63,10.0,South,6.9,-,N/A,,Clear,170,2013-01-10 20:55:00
3:15 PM,39.2,32.0,75,29.64,10.0,South,6.9,-,N/A,,Clear,170,2013-01-10 21:15:00
3:35 PM,39.2,32.0,75,29.64,10.0,South,8.1,-,N/A,,Clear,180,2013-01-10 21:35:00
3:55 PM,37.4,32.0,81,29.63,10.0,South,6.9,-,N/A,,Clear,180,2013-01-10 21:55:00
4:15 PM,37.4,32.0,81,29.64,10.0,South,6.9,-,N/A,,Clear,170,2013-01-10 22:15:00
4:35 PM,35.6,32.0,87,29.64,10.0,SE,5.8,-,N/A,,Clear,130,2013-01-10 22:35:00
4:55 PM,33.8,32.0,93,29.64,10.0,SE,6.9,-,N/A,,Clear,140,2013-01-10 22:55:00
5:15 PM,35.6,32.0,87,29.64,10.0,South,4.6,-,N/A,,Clear,170,2013-01-10 23:15:00
5:35 PM,32.0,32.0,100,29.64,10.0,North,3.5,-,N/A,,Clear,360,2013-01-10 23:35:00
5:55 PM,30.2,28.4,93,29.64,10.0,NNW,13.8,-,N/A,,Partly Cloudy,330,2013-01-10 23:55:00
6:15 PM,26.6,26.6,100,29.65,10.0,North,11.5,-,N/A,,Partly Cloudy,350,2013-01-11 00:15:00
6:35 PM,26.6,26.6,100,29.66,10.0,North,8.1,-,N/A,,Clear,360,2013-01-11 00:35:00
6:55 PM,24.8,24.8,100,29.65,10.0,NNW,9.2,-,N/A,,Clear,330,2013-01-11 00:55:00
7:15 PM,24.8,24.8,100,29.65,10.0,NNW,8.1,-,N/A,,Clear,330,2013-01-11 01:15:00
7:35 PM,24.8,24.8,100,29.65,10.0,NW,6.9,-,N/A,,Clear,320,2013-01-11 01:35:00
7:55 PM,23.0,23.0,100,29.64,10.0,NNW,8.1,-,N/A,,Partly Cloudy,330,2013-01-11 01:55:00
8:15 PM,23.0,23.0,100,29.64,10.0,NNW,8.1,-,N/A,,Scattered Clouds,330,2013-01-11 02:15:00
8:55 PM,24.8,24.8,100,29.63,10.0,NNW,8.1,-,N/A,,Overcast,340,2013-01-11 02:55:00
9:15 PM,24.8,24.8,100,29.63,10.0,North,8.1,-,N/A,,Overcast,350,2013-01-11 03:15:00
9:35 PM,24.8,24.8,100,29.61,10.0,North,9.2,-,N/A,,Overcast,350,2013-01-11 03:35:00
9:55 PM,24.8,24.8,100,29.62,10.0,North,9.2,-,N/A,,Overcast,350,2013-01-11 03:55:00
10:15 PM,24.8,24.8,100,29.61,10.0,North,10.4,-,N/A,,Overcast,350,2013-01-11 04:15:00
10:35 PM,24.8,24.8,100,29.62,10.0,NNW,9.2,-,N/A,,Overcast,330,2013-01-11 04:35:00
10:55 PM,23.0,23.0,100,29.63,10.0,NNW,11.5,20.7,N/A,,Overcast,340,2013-01-11 04:55:00
11:15 PM,23.0,23.0,100,29.62,10.0,NNW,12.7,18.4,N/A,,Overcast,340,2013-01-11 05:15:00
11:35 PM,21.2,21.2,100,29.62,10.0,NNW,15.0,-,N/A,,Overcast,340,2013-01-11 05:35:00
11:55 PM,19.4,19.4,100,29.61,10.0,NNW,16.1,-,N/A,,Overcast,340,2013-01-11 05:55:00